User: anonymous   Login
Location: Unspecified
(0.0000°N, 0.0000°E)
Time: 21:52:27
(UTC+00:00)
Language:

FLYING LAPTOP - Orbit

View from above orbital plane
View from above orbital plane
View from above satellite
View from above satellite

Ground track
Ground track

The orbit is defined by the following mean orbital elements,

1 42831U          26150.58718206 +.00000000 +00000-0 +32936-3 0 00008
2 42831  97.4607 306.8068 0018623 180.0674 180.0551 15.01017055    05
Epoch (UTC): 30 May 2026 14:05:32
Eccentricity: 0.0018623
inclination: 97.4607°
perigee height: 551 km
apogee height: 577 km
right ascension of ascending node: 306.8068°
argument of perigee: 180.0674°
revolutions per day: 15.01017055
mean anomaly at epoch: 180.0551°

The dashed part of the orbit path shows where the satellite is in the earth's shadow,  

DLR